International Skating Union - Official Site

Essent ISU World Cup Heerenveen
March 8-10, 2013

Draw | Lap Times | Index | World Cup

Referee: Jan  AUGUSTINUS  (NED)
Starter: Roland  STEENBECK  (GER)
StartTime: EndTime: Air Temp: Ice Temp: Humidity:
19:24 19:35
Result Team Pursuit Men
Rankings as of Mar 8 2013 7:42PM
Rank: No.: Team: Nation: Time: Behind: Points:
Total 4
1 1 Netherlands (35) Jan Blokhuijsen (39) Sven Kramer (48) Koen Verweij (33) Jorrit Bergsma NED NED 3:40.640.5 - 17.49 - (17.4)
1.0 - 30.75 - (13.2)
1.5 - 44.09 - (13.3)
2.0 - 57.45 - (13.3)
2.5 - 1:10.94 - (13.4)
3.0 - 1:24.75 - (13.8)
3.5 - 1:38.35 - (13.5)
4.0 - 1:51.85 - (13.5)
4.5 - 2:05.43 - (13.5)
5.0 - 2:18.86 - (13.4)
5.5 - 2:32.30 - (13.4)
6.0 - 2:46.00 - (13.6)
6.5 - 2:59.77 - (13.7)
7.0 - 3:13.51 - (13.7)
7.5 - 3:27.26 - (13.7)
8.0 - 3:40.64 - (13.3)
150
2 2 Korea (26) Hyung-Joon Joo (28) Byung-Wook Ko (30) Seung-Hoon Lee (27) Cheol-Min Kim KOR KOR 3:42.690.5 - 18.24 - (18.2)
1.0 - 31.65 - (13.4)
1.5 - 44.83 - (13.1)
2.0 - 57.75 - (12.9)
2.5 - 1:10.65 - (12.9)
3.0 - 1:23.61 - (12.9)
3.5 - 1:36.95 - (13.3)
4.0 - 1:50.34 - (13.3)
4.5 - 2:04.13 - (13.7)
5.0 - 2:18.18 - (14.0)
5.5 - 2:32.62 - (14.4)
6.0 - 2:46.85 - (14.2)
6.5 - 3:01.23 - (14.3)
7.0 - 3:14.98 - (13.7)
7.5 - 3:28.74 - (13.7)
8.0 - 3:42.69 - (13.9)
2.05 120
3 3 Russia (65) Yevgeny Lalenkov (68) Ivan Skobrev (70) Denis Yuskov (78)   RUS RUS 3:43.020.5 - 17.80 - (17.8)
1.0 - 31.37 - (13.5)
1.5 - 44.86 - (13.4)
2.0 - 58.36 - (13.5)
2.5 - 1:11.95 - (13.5)
3.0 - 1:25.59 - (13.6)
3.5 - 1:39.17 - (13.5)
4.0 - 1:52.59 - (13.4)
4.5 - 2:06.18 - (13.5)
5.0 - 2:19.84 - (13.6)
5.5 - 2:33.77 - (13.9)
6.0 - 2:47.71 - (13.9)
6.5 - 3:01.40 - (13.6)
7.0 - 3:15.12 - (13.7)
7.5 - 3:28.88 - (13.7)
8.0 - 3:43.02 - (14.1)
2.38 105
4 4 Norway (51) Håvard Bøkko (55) Simen Spieler Nilsen (56) Sverre Lunde Pedersen (53) Fredrik van der Horst NOR NOR 3:43.990.5 - 17.63 - (17.6)
1.0 - 30.98 - (13.3)
1.5 - 44.39 - (13.4)
2.0 - 57.99 - (13.6)
2.5 - 1:11.90 - (13.9)
3.0 - 1:25.39 - (13.4)
3.5 - 1:38.94 - (13.5)
4.0 - 1:52.36 - (13.4)
4.5 - 2:06.00 - (13.6)
5.0 - 2:19.80 - (13.8)
5.5 - 2:34.03 - (14.2)
6.0 - 2:48.08 - (14.0)
6.5 - 3:02.24 - (14.1)
7.0 - 3:15.98 - (13.7)
7.5 - 3:29.84 - (13.8)
8.0 - 3:43.99 - (14.1)
3.35 90